Taurus 1
1 44530U 19059C   25154.85589126  .00008781  00000-0  16168-2 0  9999
2 44530  98.6064 293.9776 0010007  61.6314 298.5896 14.65794413303101
Duchifat 3
1 44854U 19089C   25154.81339967  .00058492  00000-0  11536-2 0  9991
2 44854  36.9446  31.8491 0005109 278.2085  81.8092 15.46128309302059
TO-108
1 44881U 19093C   25154.83477813  .00001206  00000-0  14543-3 0  9994
2 44881  97.7924 230.6045 0012419 248.0617 111.9278 14.85591271295222
FloripaSat 1
1 44885U 19093G   25154.80505672  .00007494  00000-0  63184-3 0  9990
2 44885  97.8177 242.3937 0009179 215.7526 144.3082 14.98432124295886
RS-44
1 44909U 19096E   25154.45582244  .00000003  00000-0 -26286-4 0  9994
2 44909  82.5222 231.3463 0216499 310.1056  48.1244 12.79740726253905
UPMSat 2
1 46276U 20061E   25154.24197122  .00101839  00000-0  91587-3 0  9994
2 46276  97.2438 228.4143 0001931 163.9541 196.1782 15.67911048264476
SALSAT
1 46495U 20068K   25154.83311363  .00009098  00000-0  39311-3 0  9995
2 46495  97.8599 132.5966 0011492 173.2275 186.9118 15.22674160257656
CubeSX-Sirius-HSE
1 47951U 21022V   25154.79138398  .02223577  61823-2  18609-2 0  9994
2 47951  97.4108  68.9450 0007098 194.9605 165.1473 16.15338111232944
CubeSX-HSE
1 47952U 21022W   25154.73922357  .02162873  54360-2  18559-2 0  9998
2 47952  97.4071  69.1594 0007894 193.7553 166.3519 16.14767098232953
GRBAlpha
1 47959U 21022AD  25154.82421285  .01392008  12563-2  17439-2 0  9998
2 47959  97.3994  69.2424 0006706 174.4962 185.6396 16.07922586231781
TUBIN
1 48900U 21059X   25154.75971955  .00083927  00000-0  10276-2 0  9990
2 48900  97.6752 323.5155 0003070 234.8767 125.2201 15.60094997219139
LEDSAT
1 49069U 21073D   25154.79142313  .00090267  00000-0  11035-2 0  9994
2 49069  97.3886 236.0894 0010354 105.9626 254.2772 15.60056544210531
CUTE
1 49263U 21088D   25154.47114040  .00022937  00000-0  46010-3 0  9998
2 49263  97.4510 230.5499 0006722 256.6571 103.3929 15.46682608203483
TeikyoSat 4
1 49396U 21102B   25154.57771803  .00003667  00000-0  24432-3 0  9992
2 49396  97.4107 193.2234 0013487 147.9915 212.2135 15.07622956195648
Z-Sat
1 49399U 21102E   25154.87016150  .00006052  00000-0  33188-3 0  9994
2 49399  97.3802 196.5655 0019664 121.7764 238.5387 15.14367392196111
KOSEN 1
1 49402U 21102H   25154.68114834  .00012475  00000-0  57564-3 0  9996
2 49402  97.3709 199.7526 0017687  99.8262 260.4971 15.20226125196393
HO-113
1 50466U 21131B   25154.85802264  .00000722  00000-0  23922-3 0  9993
2 50466  98.5099 244.2390 0005021 141.6048 218.5499 14.40808559180628
IRIS-A
1 51044U 22002BN  25154.88121739  .03206934  24026-5  11774-2 0  9994
2 51044  97.3008 236.2573 0012133 254.5272 105.4679 16.24480235189003
Foresail-1
1 52766U 22057AL  25154.83810763  .00438296  78870-4  11502-2 0  9992
2 52766  97.6027 306.2017 0007483 252.7549 107.2907 15.94791018168987
SNUGLITE 2
1 52899U 22065F   25154.60911760  .00001739  00000-0  34679-3 0  9997
2 52899  98.1681 296.6409 0008728 127.1120 233.0880 14.63202520155610
UmKA 1 (RS40S)
1 57172U 23091G   25154.86188400  .00006932  00000-0  37072-3 0  9991
2 57172  97.5582 210.2740 0014099   1.4030 358.7239 15.15305784106617
CubeBel-2 (EU11S)
1 57175U 23091K   25154.84065838  .00014613  00000-0  69495-3 0  9990
2 57175  97.5581 211.3641 0011971  10.5224 349.6258 15.19228576106687
VERONIKA
1 58261U 23174F   25154.78399893  .00178808  00000-0  15273-2 0  9994
2 58261  97.4117 240.6164 0002731 109.4958 250.6598 15.68936282 87779
ENSO
1 58470U 23185J   25154.84793482  .00072530  00000-0  10621-2 0  9994
2 58470  97.3732 229.7852 0008191 109.8276 250.3861 15.55301018 84145
EIRSAT-1
1 58472U 23185L   25154.83342607  .00131152  00000-0  12464-2 0  9997
2 58472  97.3691 231.5746 0005751 122.4933 237.6883 15.66428907 84268
SONATE-2
1 59112U 24043Q   25154.63032989  .00030455  00000-0  87778-3 0  9995
2 59112  97.5128 285.6900 0012282 133.2833 226.9437 15.35602774 69424
MO-122
1 60209U 24125G   25154.58092628  .00033097  00000-0  93985-3 0  9997
2 60209  97.2805   6.2673 0019742 154.8408 205.3802 15.35926775 51036
GRBBeta
1 60237U 24128C   25154.34748234  .00007267  00000-0  54308-3 0  9992
2 60237  61.9911 101.2875 0051575  56.1502 304.4481 15.02578446 49260
Curium One
1 60242U 24128H   25154.26133100  .00013359  00000-0  92204-3 0  9995
2 60242  61.9810  99.9728 0051438  52.0720 308.5004 15.05013120 49283
ROBUSTA-3A
1 60243U 24128J   25154.86017188  .00011639  00000-0  81642-3 0  9992
2 60243  61.9879  98.6851 0050243  49.9235 310.6246 15.04559224 49361
CatSat
1 60246U 24125J   25154.54513449  .00019728  00000-0  65562-3 0  9998
2 60246  97.2599   5.5144 0044339 115.0456 245.5398 15.30254609 49065
HYPERVIEW-1G (RS66S)
1 61772U 24199AP  25154.87569920  .00028226  00000-0  82169-3 0  9990
2 61772  97.3547  23.7461 0012983 205.6318 154.4283 15.35294703 76088
AO-123
1 61781U 24199AY  25154.88383122  .00008702  00000-0  31730-3 0  9994
2 61781  97.3560  22.7015 0014836 212.4739 147.5589 15.28300113 76019
ZIMSAT 2
1 61783U 24199BA  25154.88183956  .00048972  00000-0  12073-2 0  9990
2 61783  97.3524  24.3227 0013006 201.3045 158.7661 15.40315609 79275
HADES-R (SO-124)
1 62690U 25009CK  25154.19620926  .00052738  00000-0  18782-2 0  9994
2 62690  97.4087 235.0283 0004591 122.8973 237.2709 15.28746992 21178
HYDRA-T
1 62692U 25009CM  25154.44449601  .00061347  00000-0  21637-2 0  9992
2 62692  97.4088 235.3056 0004170 120.4088 239.7565 15.29022739 21215
JINJUSat 1B
1 63210U 25052A   25154.67294709  .00021731  00000-0  99397-3 0  9991
2 63210  97.4422  48.8705 0004166  11.1496 348.9831 15.20542743 12353
NUSHSAT 1
1 63211U 25052B   25154.20813156  .00019852  00000-0  90349-3 0  9993
2 63211  97.4414  48.4116 0004450  18.8543 341.2856 15.20733116 12281
TEVEL2-4
1 63213U 25052D   25154.68118471  .00022863  00000-0  10478-2 0  9995
2 63213  97.4331  48.7648 0004213  36.7300 323.4223 15.20464553 12355
TEVEL2-5
1 63214U 25052E   25154.48426421  .00022497  00000-0  10319-2 0  9998
2 63214  97.4332  48.5697 0004248  37.3865 322.7665 15.20438766 12326
TEVEL2-6
1 63215U 25052F   25154.68368108  .00022626  00000-0  10387-2 0  9997
2 63215  97.4334  48.7627 0004307  37.4168 322.7366 15.20407121 12359
TEVEL2-1
1 63217U 25052H   25154.43062176  .00019362  00000-0  89553-3 0  9993
2 63217  97.4310  48.4643 0004897  46.8120 313.3524 15.20180008 12316
TEVEL2-2
1 63218U 25052J   25154.62839488  .00022626  00000-0  10452-2 0  9991
2 63218  97.4311  48.6593 0004950  47.2002 312.9649 15.20190347 12341
TEVEL2-3
1 63219U 25052K   25154.62849464  .00022813  00000-0  10539-2 0  9991
2 63219  97.4312  48.6590 0004915  46.7584 313.4061 15.20185875 12344
TEVEL2-8
1 63237U 25052AD  25154.62339347  .00021935  00000-0  10484-2 0  9998
2 63237  97.4373  48.5791 0009591  46.5238 313.6792 15.18986483 12335
TEVEL2-9
1 63238U 25052AE  25154.62550793  .00021562  00000-0  10324-2 0  9998
2 63238  97.4375  48.5779 0009680  46.3561 313.8475 15.18928921 12333
TEVEL2-7
1 63239U 25052AF  25154.42968597  .00018595  00000-0  89228-3 0  9994
2 63239  97.4374  48.3804 0009704  47.3128 312.8923 15.18884175 12303
HYDRA-W
1 63490U 25052BL  25154.69854911  .00055741  00000-0  23545-2 0  9999
2 63490  97.4315  48.8853 0013317  42.1006 318.1252 15.22969011 12367
HADES-ICM
1 63492U 25052BN  25154.44901936  .00045486  00000-0  19490-2 0  9993
2 63492  97.4321  48.6125 0013656  45.7575 314.4780 15.22535357 12325
